This demonstration page uses our WeatherBlox Daily Observations layout. Learn more.

Left ArrowRight Arrow

36.17497, -115.13722

Hourly Observations for December 10, 2019

Temp ( °F °C ) Dew Point ( °F °C ) Humidity (%) Winds ( mph kmh ) Pressure ( in mb ) Visibility ( mi km ) Precip ( " mm )
12:53 am 00:53 Clear 48 8.9 32 0 54 54 Calm 30.24 1024 10 16 0.00 0.00
1:53 am 01:53 Clear 47 8.3 32 0 56 56 NNW 9 15 30.25 1024 10 16 0.00 0.00
2:53 am 02:53 Clear 45 7.2 32 0 61 61 W 6 9 30.26 1025 10 16 0.00 0.00
3:53 am 03:53 Clear 46 7.8 31 -0.6 56 56 NNW 6 9 30.26 1025 10 16 0.00 0.00
4:53 am 04:53 Clear 44 6.7 31 -0.6 60 60 NNW 5 7 30.28 1025 10 16 0.00 0.00
5:53 am 05:53 Clear 42 5.6 30 -1.1 62 62 NW 7 11 30.31 1026 10 16 0.00 0.00
6:53 am 06:53 Sunny 43 6.1 31 -0.6 63 63 Calm 30.33 1027 10 16 0.00 0.00
7:53 am 07:53 Sunny 48 8.9 30 -1.1 50 50 NW 3 6 30.34 1027 10 16 0.00 0.00
8:53 am 08:53 Sunny 51 10.6 31 -0.6 46 46 N 3 6 30.36 1028 10 16 0.00 0.00
9:53 am 09:53 Sunny 53 11.7 31 -0.6 43 43 ENE 3 6 30.37 1028 10 16 0.00 0.00
10:53 am 10:53 Sunny 53 11.7 31 -0.6 43 43 ESE 3 6 30.35 1028 10 16 0.00 0.00
11:53 am 11:53 Sunny 55 12.8 30 -1.1 38 38 SE 9 15 30.31 1027 10 16 0.00 0.00
12:53 pm 12:53 Sunny 56 13.3 30 -1.1 37 37 SSE 7 11 30.29 1026 10 16 0.00 0.00
1:53 pm 13:53 Sunny 56 13.3 29 -1.7 36 36 SE 7 11 30.28 1025 10 16 0.00 0.00
2:53 pm 14:53 Sunny 57 13.9 29 -1.7 34 34 VRB 3 6 30.28 1026 10 16 0.00 0.00
3:53 pm 15:53 Sunny 55 12.8 31 -0.6 40 40 Calm 30.28 1025 10 16 0.00 0.00
4:53 pm 16:53 Clear 54 12.2 30 -1.1 40 40 Calm 30.30 1026 10 16 0.00 0.00
5:53 pm 17:53 Clear 52 11.1 33 0.6 49 49 Calm 30.30 1026 10 16 0.00 0.00
6:53 pm 18:53 Clear 52 11.1 32 0 47 47 Calm 30.31 1027 10 16 0.00 0.00
7:53 pm 19:53 Clear 51 10.6 31 -0.6 46 46 Calm 30.31 1026 10 16 0.00 0.00
8:53 pm 20:53 Clear 48 8.9 34 1.1 58 58 WNW 5 7 30.32 1027 10 16 0.00 0.00
9:53 pm 21:53 Clear 47 8.3 34 1.1 61 61 WNW 5 7 30.31 1026 10 16 0.00 0.00
10:53 pm 22:53 Clear 46 7.8 34 1.1 63 63 W 5 7 30.30 1026 10 16 0.00 0.00
11:53 pm 23:53 Clear 43 6.1 33 0.6 68 68 W 3 6 30.29 1026 10 16 0.00 0.00

Powered by AerisWeather